| time (UTC) | temp F | wind direction | speed knots | gust knots | rain 1hr in | rain 24hr in | rain mn in | humidity % | barometer mb |
| 20260503072516 | 70 | 23 | 1.7 | 7.0 | 0.00 | 0.37 | 0.09 | 94 | 1013.7 |
| 20260503071516 | 70 | 314 | 1.7 | 7.0 | 0.00 | 0.37 | 0.09 | 95 | 1013.6 |
| 20260503070516 | 70 | 326 | 1.7 | 8.7 | 0.00 | 0.37 | 0.09 | 95 | 1013.6 |
| 20260503054516 | 70 | 298 | 2.6 | 7.0 | 0.06 | 0.36 | 0.08 | 95 | 1014.4 |
| 20260503053516 | 70 | 299 | 1.7 | 7.0 | 0.05 | 0.35 | 0.07 | 95 | 1014.4 |
| 20260503052516 | 70 | 265 | 4.3 | 11.3 | 0.06 | 0.35 | 0.07 | 94 | 1014.4 |
| 20260503051516 | 70 | 296 | 2.6 | 9.6 | 0.05 | 0.33 | 0.05 | 94 | 1014.3 |
| 20260503050516 | 71 | 275 | 3.5 | 7.8 | 0.03 | 0.31 | 0.03 | 94 | 1014.3 |
| 20260503045536 | 72 | 289 | 1.7 | 6.1 | 0.03 | 0.31 | 0.03 | 94 | 1014.4 |
| 20260503044516 | 72 | 316 | 1.7 | 6.1 | 0.02 | 0.30 | 0.02 | 93 | 1014.3 |
| 20260503043515 | 73 | 232 | 1.7 | 6.1 | 0.02 | 0.30 | 0.02 | 92 | 1014.1 |
| 20260503042516 | 74 | 232 | 3.5 | 8.7 | 0.01 | 0.29 | 0.01 | 90 | 1014.2 |
| 20260503041516 | 74 | 200 | 1.7 | 7.8 | 0.00 | 0.28 | 0.00 | 89 | 1014.1 |
| 20260503040515 | 74 | 137 | 1.7 | 4.3 | 0.00 | 0.28 | 0.00 | 89 | 1013.8 |
| 20260503035516 | 74 | 137 | 3.5 | 8.7 | 0.00 | 0.28 | 0.04 | 89 | 1013.9 |
| 20260503034516 | 74 | 137 | 3.5 | 7.8 | 0.00 | 0.28 | 0.04 | 88 | 1013.9 |
| 20260503033515 | 75 | 140 | 3.5 | 7.8 | 0.00 | 0.28 | 0.04 | 88 | 1013.6 |
| 20260503032515 | 74 | 137 | 3.5 | 7.8 | 0.00 | 0.28 | 0.04 | 88 | 1013.5 |
| 20260503031516 | 74 | 138 | 2.6 | 7.0 | 0.00 | 0.28 | 0.04 | 89 | 1013.2 |
| 20260503030535 | 74 | 132 | 5.2 | 9.6 | 0.00 | 0.28 | 0.04 | 89 | 1013.0 |
| 20260503025516 | 74 | 122 | 6.1 | 8.7 | 0.00 | 0.28 | 0.04 | 90 | 1012.9 |
| 20260503024515 | 74 | 133 | 6.1 | 8.7 | 0.00 | 0.28 | 0.04 | 90 | 1013.1 |
| 20260503023515 | 74 | 128 | 5.2 | 8.7 | 0.00 | 0.28 | 0.04 | 89 | 1012.8 |
| 20260503022515 | 74 | 131 | 4.3 | 7.8 | 0.00 | 0.28 | 0.04 | 89 | 1012.8 |
| 20260503021515 | 75 | 126 | 4.3 | 7.8 | 0.00 | 0.28 | 0.04 | 88 | 1012.7 |
| 20260503020515 | 75 | 132 | 5.2 | 8.7 | 0.00 | 0.28 | 0.04 | 88 | 1013.0 |
| 20260503015515 | 74 | 148 | 0.9 | 4.3 | 0.00 | 0.28 | 0.04 | 87 | 1012.8 |
| 20260503014515 | 74 | 173 | 0.0 | 4.3 | 0.00 | 0.28 | 0.04 | 88 | 1012.8 |
| 20260503013535 | 74 | 179 | 1.7 | 4.3 | 0.00 | 0.28 | 0.04 | 89 | 1012.6 |
| 20260503012515 | 74 | 183 | 0.0 | 1.7 | 0.00 | 0.28 | 0.04 | 89 | 1012.3 |
| 20260503011536 | 73 | 181 | 0.9 | 3.5 | 0.00 | 0.28 | 0.04 | 88 | 1011.8 |
| 20260503010515 | 73 | 174 | 1.7 | 4.3 | 0.00 | 0.28 | 0.04 | 88 | 1011.8 |
| 20260503005515 | 73 | 164 | 0.0 | 2.6 | 0.00 | 0.28 | 0.04 | 89 | 1011.5 |
| 20260503004515 | 73 | 165 | 0.0 | 3.5 | 0.00 | 0.28 | 0.04 | 89 | 1011.6 |
| 20260503003515 | 73 | 137 | 0.9 | 7.0 | 0.00 | 0.28 | 0.04 | 89 | 1011.8 |
| 20260503002515 | 73 | 147 | 3.5 | 6.1 | 0.01 | 0.28 | 0.04 | 89 | 1011.7 |
| 20260503001515 | 73 | 175 | 0.9 | 1.7 | 0.02 | 0.28 | 0.04 | 89 | 1011.6 |
| 20260503000535 | 73 | 171 | 0.9 | 5.2 | 0.03 | 0.28 | 0.04 | 91 | 1011.6 |
| 20260502235515 | 73 | 151 | 0.9 | 4.3 | 0.04 | 0.28 | 0.04 | 92 | 1011.7 |
| 20260502234515 | 72 | 166 | 1.7 | 4.3 | 0.04 | 0.28 | 0.04 | 93 | 1011.1 |
| 20260502233515 | 72 | 191 | 0.9 | 2.6 | 0.04 | 0.28 | 0.04 | 91 | 1009.9 |
| 20260502232515 | 73 | 192 | 0.0 | 2.6 | 0.03 | 0.27 | 0.03 | 90 | 1009.8 |
| 20260502231535 | 73 | 189 | 0.9 | 2.6 | 0.02 | 0.26 | 0.02 | 89 | 1011.3 |
| 20260502230537 | 73 | 0.0 | 0.0 | 0.01 | 0.25 | 0.01 | 87 | 1011.5 | |
| 20260502215015 | 73 | 0.0 | 0.0 | 0.10 | 0.24 | 0.24 | 94 | 1011.2 | |
| 20260502214016 | 72 | 0.0 | 0.0 | 0.09 | 0.23 | 0.23 | 94 | 1010.6 | |
| 20260502213016 | 73 | 0.0 | 0.0 | 0.08 | 0.22 | 0.22 | 94 | 1010.1 | |
| 20260502212016 | 72 | 0.0 | 0.0 | 0.08 | 0.22 | 0.22 | 94 | 1010.3 | |
| 20260502211035 | 72 | 255 | 1.7 | 2.6 | 0.07 | 0.21 | 0.21 | 93 | 1010.4 |
| 20260502210056 | 73 | 212 | 3.5 | 11.3 | 0.06 | 0.20 | 0.20 | 93 | 1010.7 |
| 20260502205015 | 72 | 207 | 5.2 | 9.6 | 0.00 | 0.14 | 0.14 | 93 | 1011.5 |
| 20260502204036 | 72 | 219 | 5.2 | 9.6 | 0.14 | 0.14 | 0.14 | 94 | 1011.5 |
| 20260502203016 | 72 | 227 | 4.3 | 7.8 | 0.14 | 0.14 | 0.14 | 93 | 1011.4 |
| 20260502202015 | 72 | 221 | 5.2 | 7.8 | 0.14 | 0.14 | 0.14 | 93 | 1010.9 |
| 20260502201036 | 72 | 238 | 2.6 | 6.1 | 0.14 | 0.14 | 0.14 | 93 | 1010.9 |
| 20260502200016 | 73 | 249 | 2.6 | 7.8 | 0.14 | 0.14 | 0.14 | 92 | 1010.8 |
| 20260502195016 | 73 | 219 | 6.1 | 14.8 | 0.14 | 0.14 | 0.14 | 88 | 1011.1 |
| 20260502194016 | 78 | 213 | 11.3 | 17.4 | 0.00 | 0.00 | 0.00 | 89 | 1011.1 |
| 20260502193036 | 79 | 140 | 3.5 | 10.4 | 0.00 | 0.00 | 0.00 | 91 | 1010.5 |
| 20260502192015 | 79 | 145 | 3.5 | 8.7 | 0.00 | 0.00 | 0.00 | 91 | 1010.9 |
| 20260502191016 | 79 | 152 | 1.7 | 4.3 | 0.00 | 0.00 | 0.00 | 91 | 1011.3 |
| 20260502190015 | 80 | 158 | 0.9 | 4.3 | 0.00 | 0.00 | 0.00 | 91 | 1011.4 |
| 20260502185015 | 80 | 158 | 2.6 | 7.8 | 0.00 | 0.00 | 0.00 | 91 | 1011.2 |
| 20260502184015 | 80 | 149 | 3.5 | 9.6 | 0.00 | 0.00 | 0.00 | 91 | 1011.3 |
| 20260502183015 | 80 | 159 | 2.6 | 10.4 | 0.00 | 0.00 | 0.00 | 91 | 1011.4 |
| 20260502182015 | 80 | 164 | 3.5 | 8.7 | 0.00 | 0.00 | 0.00 | 90 | 1011.4 |
| 20260502181016 | 80 | 159 | 4.3 | 13.0 | 0.00 | 0.00 | 0.00 | 90 | 1011.4 |
| 20260502164035 | 80 | 158 | 3.5 | 8.7 | 0.00 | 0.00 | 0.00 | 88 | 1011.9 |
| 20260502163015 | 80 | 157 | 5.2 | 17.4 | 0.00 | 0.00 | 0.00 | 88 | 1011.8 |
| 20260502162015 | 80 | 139 | 8.7 | 15.6 | 0.00 | 0.00 | 0.00 | 88 | 1011.6 |
| 20260502161015 | 81 | 161 | 4.3 | 12.2 | 0.00 | 0.00 | 0.00 | 87 | 1011.7 |
| 20260502152015 | 80 | 159 | 2.6 | 13.0 | 0.00 | 0.00 | 0.00 | 86 | 1012.0 |
| 20260502151015 | 80 | 157 | 4.3 | 12.2 | 0.00 | 0.00 | 0.00 | 86 | 1011.9 |
| 20260502123017 | 78 | 127 | 10.4 | 13.0 | 0.00 | 0.00 | 0.00 | 90 | 1010.2 |
| 20260502122037 | 76 | 110 | 6.1 | 12.2 | 0.00 | 0.00 | 0.00 | 89 | 1010.0 |
| 20260502121017 | 76 | 95 | 3.5 | 7.0 | 0.00 | 0.00 | 0.00 | 89 | 1010.0 |
| 20260502115017 | 75 | 87 | 1.7 | 5.2 | 0.00 | 0.00 | 0.00 | 89 | 1010.0 |
| 20260502114017 | 75 | 95 | 1.7 | 5.2 | 0.00 | 0.00 | 0.00 | 90 | 1010.2 |
| 20260502113057 | 74 | 99 | 2.6 | 8.7 | 0.00 | 0.00 | 0.00 | 91 | 1010.0 |
| 20260502112037 | 74 | 106 | 7.0 | 9.6 | 0.00 | 0.00 | 0.00 | 91 | 1009.9 |
| 20260502111017 | 74 | 106 | 7.0 | 8.7 | 0.00 | 0.00 | 0.00 | 91 | 1009.8 |
| 20260502110017 | 74 | 110 | 7.8 | 9.6 | 0.00 | 0.00 | 0.00 | 91 | 1009.8 |
| 20260502105016 | 74 | 103 | 5.2 | 8.7 | 0.00 | 0.00 | 0.00 | 91 | 1009.8 |
| 20260502104037 | 74 | 107 | 6.1 | 7.8 | 0.00 | 0.00 | 0.00 | 91 | 1009.7 |
| 20260502103017 | 74 | 115 | 6.1 | 7.8 | 0.00 | 0.00 | 0.00 | 91 | 1009.9 |
| 20260502102017 | 74 | 108 | 7.8 | 10.4 | 0.00 | 0.00 | 0.00 | 91 | 1009.7 |
| 20260502101017 | 74 | 108 | 8.7 | 11.3 | 0.00 | 0.00 | 0.00 | 92 | 1009.5 |
| 20260502091017 | 75 | 121 | 5.2 | 7.0 | 0.00 | 0.00 | 0.00 | 92 | 1010.1 |